Regional Weather Roundup
Issued by NWS

Home | Current Version | Previous Version | Text Only | Print | Product List | Glossary Off
Versions: 1 2 3 4 5 6 7 8 9 10 11 12 13 14 15 16 17 18 19 20 21 22 23 24 25 26 27

000
ASUS45 KTFX 221510
RWRMT
MONTANA REGIONAL WEATHER ROUNDUP
NATIONAL WEATHER SERVICE GREAT FALLS MT
900 AM MDT SUN OCT 22 2017

NOTE: "FAIR" INDICATES FEW OR NO CLOUDS BELOW 12000 FEET WITH NO
SIGNIFICANT WEATHER AND/OR OBSTRUCTIONS TO VISIBILITY.

MTZ001>007-043-221600-
WEST OF THE DIVIDE

CITY           SKY/WX    TMP DP  RH WIND       PRES   REMARKS
KALISPELL      CLOUDY    46  42  86 S12       29.75R
MISSOULA       LGT RAIN  49  41  74 SE5       29.87R
BUTTE          CLOUDY    47  34  60 SW8       29.96R
MULLAN PASS    RAIN      38  36  92 SW15G31   29.79S FOG     WCI  29
ANACONDA         N/A     46  34  61 S24G47    29.91R
DEER LODGE       N/A     52  34  50 SW22G32   29.87S
EUREKA           N/A     45  39  81 MISG      29.68S
HAMILTON         N/A     46  41  81 S12       29.92R
LIBBY            N/A     37  37 100 CALM      29.70R
PLAINS           N/A     46  42  86 CALM      29.83R
$$

MTZ008-052>055-221600-
SOUTHWEST MONTANA

CITY           SKY/WX    TMP DP  RH WIND       PRES   REMARKS
BOZEMAN        CLOUDY    54  31  41 SW20G32   29.92F
DILLON         CLOUDY    49  29  46 S6        30.00F
W YELLOWSTONE  LGT SNOW  34  32  93 S7        30.18F WCI  28
ENNIS          CLOUDY    45  30  57 S25G33    30.06F
THREE FORKS      N/A     53  31  43 S22       29.93R
TWIN BRIDGES     N/A     51  28  41 SE12      29.99R
$$

MTZ009-010-012-014-046-048-049-054-221600-
EAST SLOPES AND CENTRAL MONTANA

CITY           SKY/WX    TMP DP  RH WIND       PRES   REMARKS
CUT BANK       MOCLDY    45  36  70 SW28      29.64R
GREAT FALLS    CLOUDY    51  35  54 W15G29    29.73R
MALMSTROM AFB  CLOUDY    53  36  52 SW18G26   29.73R
HELENA         LGT RAIN  56  36  47 W13G28    29.83R
BOWMANS CRNR     N/A     45  37  74 SW25      29.77R
CHOTEAU          N/A     48  37  66 SW15G24   29.75R
FAIRFIELD      MOCLDY    49  35  56 SW24G35   29.73R
POWER            N/A     49  34  57 SW23G33   29.70R
RAYNESFORD     MOCLDY    55  33  43 W28G37    29.73R
ULM              N/A     54  36  49 W28G40    29.74R
$$

MTZ011-013-016-021-045-047-050-051-221600-
NORTH CENTRAL MONTANA

CITY           SKY/WX    TMP DP  RH WIND       PRES   REMARKS
HAVRE          CLOUDY    55  37  50 SW31G38   29.58F
LEWISTOWN      CLOUDY    54  32  43 SW30G36   29.75R
N BAR RANCH      N/A     54  30  40 W25G36    29.76R
CHINOOK          N/A     54  39  58 W12       29.60S
DENTON         PTSUNNY   53  34  47 SW13      29.67R
GEYSER           N/A     56  32  40 W29G44    29.71R
GRASS RANGE      N/A     56  32  39 W32G45    29.66R
JUDITH GAP     PTSUNNY   50  31  48 SW15G32   29.80R
WINIFRED       PTSUNNY   54  33  45 W17G24    29.68S
$$

MTZ017>020-022>027-061-062-221600-
NORTHEAST MONTANA

CITY           SKY/WX    TMP DP  RH WIND       PRES   REMARKS
GLASGOW        CLOUDY    43  30  60 S10       29.64F
JORDAN           N/A     53  33  46 SW22G31   29.68F
SIDNEY         CLOUDY    39  25  57 S13       29.73F WCI  31
WOLF POINT     CLOUDY    37  28  70 NE5       29.67F
MALTA          CLOUDY    43  34  70 SW5       29.63R
PLENTYWOOD       N/A     34  27  75 CALM      29.67F
POPLAR           N/A     39  27  60 S6        29.70F
SCOBEY           N/A     37  19  48 SE5       29.63F
$$

MTZ028>42-056>058-221600-
SOUTHCENTRAL AND SOUTHEAST MONTANA

CITY           SKY/WX    TMP DP  RH WIND       PRES   REMARKS
BAKER          CLOUDY    50  21  32 SW18      29.80F
BILLINGS       CLOUDY    51  27  39 W18       29.85R
LIVINGSTON     CLOUDY    51  31  46 SW40G61   29.88R
MILES CITY     CLOUDY    42  25  50 CALM      29.80R
BIG TIMBER     SUNNY     54  30  40 W23G35    29.88R
EKALAKA          N/A     48  15  27 S7        29.83F
FORSYTH          N/A     52  27  37 CALM      29.79S
HARLOWTON        N/A     53  31  43 W23G35    29.79R
LAUREL           N/A     54  25  32 SW14G24   29.87S
$$

REGIONAL REPORTS...DAKOTAS

CITY           SKY/WX    TMP DP  RH WIND       PRES   REMARKS
WILLISTON      PTSUNNY   37  27  67 S6        29.73F
MINOT          SUNNY     43  29  57 SW12      29.74F
DICKINSON      MOSUNNY   45  22  40 SW17      29.76F
BEACH          PTSUNNY   46  19  34 SW16      29.80S
CROSBY         PTSUNNY   36  27  69 S16       29.68F WCI  26
TIOGA            N/A     39  28  65 SW16      29.73F WCI  30
BISMARCK       SUNNY     41  28  60 CALM      29.85F
GRAND FORKS    SUNNY     47  34  60 SW14      29.83R
FARGO          SUNNY     45  34  65 SW12      29.89R
BUFFALO SD       N/A     46  20  35 SW13      29.80R
RAPID CITY     CLOUDY    41  19  41 VRB5      29.94F
$$

REGIONAL REPORTS...WYOMING/IDAHO/WASHINGTON

CITY           SKY/WX    TMP DP  RH WIND       PRES   REMARKS
GILLETTE       CLOUDY    49  23  36 SW23      29.93R
SHERIDAN       SUNNY     44  25  47 CALM      29.90R
BUFFALO WY     CLOUDY    54  20  26 CALM      29.94R
CODY           CLOUDY    53  29  39 SW21G33   30.02R
YELLOWSTONE LA   N/A     32  32 100 VRB5      30.20S
IDAHO FALLS    CLOUDY    47  35  63 S22G31    30.24R
SALMON         CLOUDY    40  38  93 SE3       30.06R
BOISE          CLOUDY    48  39  71 SE14      30.24R
SPOKANE        MOCLDY    51  48  89 SW26G40   29.83R
$$

REGIONAL REPORTS...ALBERTA

CITY           SKY/WX    TMP DP  RH WIND       PRES   REMARKS
EDMONTON       CLOUDY    34  25  69 W7        29.39R WCI  28
CALGARY        PTCLDY    46  25  42 W14G21    29.42R
LETHBRIDGE     PTCLDY    46  36  66 SW33G44   29.49R
MEDICINE HAT   MOCLDY    50  37  62 SW20G28   29.47R
$$

REGIONAL REPORTS...SASKATCHEWAN

CITY           SKY/WX    TMP DP  RH WIND       PRES   REMARKS
SWIFT CURRENT  CLOUDY    45  34  65 SW18G26   29.45F
REGINA         PTSUNNY   32  28  86 SE8       29.57F WCI  25
SASKATOON      CLOUDY    32  30  93 SE6       29.48F WCI  26
$$




USA.gov is the U.S. government's official web portal to all federal, state and local government web resources and services.